Regional Weather Roundup
Issued by NWS

Home | Current Version | Previous Version | Graphics & Text | Print | Product List | Glossary On
Versions: 1 2 3 4 5 6 7 8 9 10 11 12 13 14 15 16 17 18 19 20 21 22 23 24 25 26 27 28 29 30 31 32 33 34 35 36 37 38 39 40 41 42 43 44 45 46 47 48 49 50
000
ASUS43 KDMX 271701
RWRIA

WEATHER ROUNDUP FOR IOWA
NATIONAL WEATHER SERVICE DES MOINES IA
1200 PM CDT THU APR 27 2017

NOTE: "FAIR" INDICATES FEW OR NO CLOUDS BELOW 12,000 FEET WITH NO
SIGNIFICANT WEATHER AND/OR OBSTRUCTIONS TO VISIBILITY.

* - THESE STATIONS ARE NOT NWS STATIONS...THUS NOT UNDER NWS
QUALITY CONTROL.  THEY ALSO DO NOT REPORT WEATHER SUCH
AS PRECIPITATION OR FOG.

IAZ001>003-012>014-020>022-031>034-043>046-271800-
   NORTHWEST IOWA

CITY           SKY/WX    TMP DP  RH WIND       PRES   REMARKS
CARROLL *      CLOUDY    39  32  75 W14       29.70R WCI  31
CHEROKEE *     CLOUDY    35  30  83 W14       29.70S WCI  26
DENISON *      PTSUNNY   41  34  75 NW12      29.72R
LE MARS *      CLOUDY    37  30  75 NW13      29.72S WCI  29
ORANGE CITY *  CLOUDY    36  30  80 NW16      29.69S WCI  26
SHELDON *      CLOUDY    37  28  70 NW15G23   29.67R WCI  28
SIOUX CITY     MOSUNNY   42  32  67 NW13      29.72S
SPENCER        CLOUDY    35  26  69 NW15      29.68R WCI  25
STORM LAKE *     N/A     34  30  86 NW16      29.68R WCI  23
$$

IAZ055>058-069>071-079>083-090>094-271800-
   SOUTHWEST IOWA

CITY           SKY/WX    TMP DP  RH WIND       PRES   REMARKS
ATLANTIC *     MOSUNNY   45  34  65 W8        29.72S
AUDUBON *      CLOUDY    43  34  70 NW9       29.71S
CLARINDA *     SUNNY     50  36  57 NW8       29.76S
COUNCIL BLFS *   N/A     43  34  70 W8G15     29.74R
CRESTON *      MOSUNNY   45  34  65 W10G20    29.72S
HARLAN  *      CLOUDY    43  34  70 NW13      29.75S
LAMONI         PTSUNNY   47  36  65 W12       29.72R
RED OAK *      SUNNY     48  34  57 NW8G15    29.74R
SHENANDOAH *   SUNNY     48  34  57 VRB6G14   29.75S
$$

IAZ047>049-059>061-072>074-084-271800-
   CENTRAL IOWA

CITY           SKY/WX    TMP DP  RH WIND       PRES   REMARKS
AMES           CLOUDY    38  30  73 W13       29.69R WCI  30
ANKENY *       CLOUDY    39  30  70 W14G24    29.72R WCI  31
BOONE *        CLOUDY    37  30  75 W13G22    29.68S WCI  29
CHARITON *     CLOUDY    43  36  75 W14       29.71S
DES MOINES     CLOUDY    41  31  67 W15       29.71R
GRINNELL*      CLOUDY    38  31  74 W13       29.70R WCI  30
KNOXVILLE *    CLOUDY    41  32  70 W15G22    29.69F
MARSHALLTOWN   CLOUDY    38  29  70 W20G25    29.67R WCI  28
NEWTON *       CLOUDY    39  30  70 W15       29.69S WCI  31
PELLA *        PTSUNNY   40  32  71 W15       29.71S WCI  32
PERRY *        CLOUDY    39  32  74 NW12G17   29.71R WCI  32
$$

IAZ004>006-015-016-023>025-035-036-271800-
   NORTH CENTRAL IOWA

CITY           SKY/WX    TMP DP  RH WIND       PRES   REMARKS
ALGONA *       CLOUDY    34  27  75 NW20G26   29.66S WCI  22
CLARION *      CLOUDY    36  30  80 W20       29.66S WCI  25
ESTHERVILLE    CLOUDY    32  27  81 NW20G26   29.66R WCI  20
FORT DODGE *   CLOUDY    36  27  69 W12G20    29.69R WCI  27
MASON CITY     CLOUDY    34  28  79 W18       29.64R WCI  23
FOREST CITY *  CLOUDY    34  32  93 NW16G22   29.63S WCI  23
WEBSTER CITY * CLOUDY    36  28  75 NW16G24   29.66S WCI  26
IOWA FALLS *   CLOUDY    37  29  73 W16G23    29.67R WCI  27
$$

IAZ007>011-017>019-026>030-037>042-050>054-066-271800-
   NORTHEAST IOWA

CITY           SKY/WX    TMP DP  RH WIND       PRES   REMARKS
CEDAR RAPIDS   CLOUDY    39  33  79 W15       29.65R WCI  31
CHARLES CITY * MIX PCPN  37  34  87 W14       29.61S WCI  29
CLINTON *      CLOUDY    40  36  86 W21       29.63R WCI  30
DECORAH *      MIX PCPN  37  32  81 W9G16     29.56R WCI  31
DUBUQUE        CLOUDY    39  34  82 W18G26    29.59R WCI  30
MONTICELLO *   CLOUDY    41  36  81 W16G23    29.62R
WATERLOO       CLOUDY    39  28  64 W15G24    29.63R WCI  31
$$

IAZ064-065-067-068-078-271800-
   EAST CENTRAL IOWA

CITY           SKY/WX    TMP DP  RH WIND       PRES   REMARKS
DAVENPORT      CLOUDY    40  35  83 W18       29.65R WCI  31
IOWA CITY      CLOUDY    41  33  73 W18G25    29.69R
MUSCATINE *    CLOUDY    43  34  70 W17G24    29.69R
QUAD CITIES    CLOUDY    43  34  70 W16G23    29.65R
$$

IAZ062-063-075>077-085>089-095>099-271800-
   SOUTHEAST IOWA

CITY           SKY/WX    TMP DP  RH WIND       PRES   REMARKS
BURLINGTON     CLOUDY    44  38  79 W14G20    29.69R
FAIRFIELD *    CLOUDY    41  34  75 W15       29.70R
FORT MADISON * CLOUDY    45  41  87 W10G16    29.71R
KEOKUK *       CLOUDY    45  37  76 W14G20    29.71R
OSKALOOSA *    CLOUDY    40  33  77 W16G22    29.71S WCI  31
OTTUMWA        CLOUDY    42  34  73 W15       29.71R
WASHINGTON *   CLOUDY    39  34  81 W18       29.71R WCI  30
$$

ABBREVIATIONS USED IN REMARKS
   TC - TEMPERATURES IN CELSIUS
  WCI - WIND CHILL INDEX
   HX - HEAT INDEX
  VSB - VISIBILITY
$$





USA.gov is the U.S. government's official web portal to all federal, state and local government web resources and services.